Weather History for Mullan Pass, ID

Change the Weather History Date:

Monday, April 21, 2014

  Actual Average (K3TH) Record (K3TH)
Temperature  
Mean Temperature 44 °F -  
Max Temperature 54 °F 57 °F 78 °F (1998)
Min Temperature 34 °F 36 °F 32 °F (1997)
Degree Days  
Heating Degree Days 22    
Moisture  
Dew Point 23 °F    
Average Humidity 48    
Maximum Humidity 59    
Minimum Humidity 27    
Precipitation  
Precipitation 0.00 in - - ()
Sea Level Pressure  
Sea Level Pressure 29.93 in    
Wind  
Wind Speed 6 mph (SSE)    
Max Wind Speed 12 mph    
Max Gust Speed -    
Visibility 10 miles    
Events      
Averages and records for this station are not official NWS values.
T = Trace of Precipitation, MM = Missing Value Source: NWS Daily Summary

Daily Weather History Graph

Daily Weather History Graph

Search for Another Location

Airport:

Trip Planner

Search our weather history database for the weather conditions in past years. The results will help you decide how hot, cold, wet, or windy it might be!

Date:

Astronomy

Apr. 21, 2014 Rise Set
Actual Time 5:42 AM PDT 7:40 PM PDT
Civil Twilight 5:10 AM PDT 8:13 PM PDT
Nautical Twilight 4:29 AM PDT 8:54 PM PDT
Astronomical Twilight 3:44 AM PDT 9:39 PM PDT
Moon 1:19 AM PDT (4/21) 11:09 AM PDT (4/21)
Length of Visible Light 15h 03m
Length of Day
13h 57m
Waning Gibbous, 56% of the Moon is Illuminated
Apr 21
Waning Gibbous
Apr 22
Last Quarter
Apr 28
New
May 6
First Quarter
May 14
Full

Hourly Weather History & Observations

Time (PDT) Temp. Windchill Dew Point Humidity Pressure Visibility Wind Dir Wind Speed Gust Speed Precip Events Conditions
12:53 AM 36.0 °F 31.1 °F 21.0 °F 55% 30.11 in 10.0 mi Variable 5.8 mph - N/A   Clear
1:53 AM 36.0 °F 30.3 °F 21.0 °F 55% 30.10 in 10.0 mi South 6.9 mph - N/A   Clear
2:53 AM 36.0 °F 32.1 °F 21.0 °F 55% 30.08 in 10.0 mi South 4.6 mph - N/A   Clear
3:53 AM 34.0 °F 27.2 °F 21.0 °F 59% 30.08 in 10.0 mi South 8.1 mph - N/A   Clear
4:53 AM 34.0 °F 25.5 °F 21.0 °F 59% 30.07 in 10.0 mi South 11.5 mph - N/A   Clear
5:53 AM 36.0 °F 31.1 °F 19.9 °F 52% 30.05 in 10.0 mi South 5.8 mph - N/A   Partly Cloudy
6:53 AM 36.0 °F 29.0 °F 21.0 °F 55% 30.04 in 10.0 mi SSE 9.2 mph - N/A   Clear
7:53 AM 37.0 °F 30.4 °F 21.9 °F 54% 30.04 in 10.0 mi SSE 9.2 mph - N/A   Clear
8:53 AM 39.0 °F 32.8 °F 24.1 °F 55% 30.01 in 10.0 mi SSE 9.2 mph - N/A   Clear
9:53 AM 39.9 °F 33.4 °F 23.0 °F 51% 30.01 in 10.0 mi SSE 10.4 mph - N/A   Clear
10:53 AM 43.0 °F 40.3 °F 24.1 °F 47% 29.97 in 10.0 mi Variable 4.6 mph - N/A   Clear
11:53 AM 45.0 °F 40.6 °F 25.0 °F 46% 29.96 in 10.0 mi SE 8.1 mph - N/A   Clear
12:53 PM 46.0 °F 43.9 °F 25.0 °F 44% 29.92 in 10.0 mi Variable 4.6 mph - N/A   Partly Cloudy
1:53 PM 48.9 °F - 23.0 °F 36% 29.92 in 10.0 mi Calm Calm - N/A   Partly Cloudy
2:53 PM 51.1 °F - 24.1 °F 35% 29.86 in 10.0 mi Calm Calm - N/A   Mostly Cloudy
3:53 PM 53.1 °F - 19.9 °F 27% 29.83 in 10.0 mi Calm Calm - N/A   Clear
4:53 PM 51.1 °F - 21.0 °F 31% 29.86 in 10.0 mi Variable 4.6 mph - N/A   Overcast
5:53 PM 48.0 °F - 21.0 °F 34% 29.83 in 10.0 mi Variable 4.6 mph - N/A   Overcast
6:53 PM 44.1 °F 39.5 °F 27.0 °F 51% 29.84 in 10.0 mi WNW 8.1 mph - N/A   Overcast
7:53 PM 42.1 °F 39.2 °F 27.0 °F 55% 29.80 in 10.0 mi SE 4.6 mph - 0.00 in   Mostly Cloudy
8:53 PM 42.1 °F 39.2 °F 26.1 °F 53% 29.79 in 10.0 mi Variable 4.6 mph - N/A   Overcast
9:53 PM 43.0 °F 39.5 °F 25.0 °F 49% 29.75 in 10.0 mi SE 5.8 mph - N/A   Partly Cloudy
10:53 PM 43.0 °F 38.8 °F 24.1 °F 47% 29.74 in 10.0 mi SE 6.9 mph - N/A   Clear
11:53 PM 43.0 °F 38.8 °F 24.1 °F 47% 29.66 in 10.0 mi ESE 6.9 mph - N/A   Mostly Cloudy